CAPE
1514 1756 1966 1882 1565 1230 855 736 738 760 1112 1278 1366 1170 1063 1192 1129 975 662 619 484 490 416 433 422 558 315 655 1184 1327 1457 1318 1061 970 970 780 454 267 169 168 200 232 316 281 329 376 390 520 599 714 878 985 1125 1193 1248 1305 1327 1281 1336 1488 1456 1178 1321
1417 1490 1678 1693 1534 1109 843 773 903 776 964 1108 1197 1162 1062 1250 1213 853 720 608 507 345 343 435 412 322 620 692 1250 1086 1042 1211 1094 1009 1023 1064 750 380 126 138 175 182 238 284 298 322 412 480 646 771 782 849 994 1011 1100 1156 1204 1250 1214 1226 1262 1335 1395
1360 1369 1497 1430 1484 1200 842 743 780 772 888 885 858 864 941 1279 1332 1130 854 639 672 610 560 497 448 446 694 960 912 910 810 958 1016 878 692 618 588 508 259 136 189 203 196 219 339 317 436 529 686 798 755 821 824 946 903 868 821 842 915 960 962 1000 1098
1374 1293 1385 1389 1357 1278 876 704 731 586 658 816 858 801 1120 1477 1542 1321 1035 781 479 514 457 372 410 503 618 737 856 844 780 834 828 710 546 505 428 504 524 481 406 347 362 390 407 366 468 624 654 713 741 788 1020 1112 1108 1061 970 844 752 696 696 786 766
1454 1334 1231 1109 1213 1277 765 643 724 650 522 594 864 1256 1309 1352 1308 1042 830 799 576 414 388 414 446 608 744 792 778 790 788 788 708 604 488 486 528 553 493 400 394 386 457 543 568 533 636 660 664 739 753 1077 1122 1112 1185 1112 961 905 816 761 744 691 756
1484 1357 1117 947 1028 1051 674 538 491 422 422 470 824 916 821 623 702 548 574 666 653 584 589 530 500 766 706 1037 793 822 760 776 494 411 432 454 461 514 467 410 392 384 463 680 551 605 636 760 732 795 1000 1107 1072 1115 1090 994 941 882 790 739 767 708 664
1472 1334 1048 854 844 837 685 538 378 307 382 676 857 817 528 417 502 431 402 413 471 651 608 323 336 432 444 750 849 859 837 603 578 502 417 460 490 601 564 540 494 481 525 599 704 635 670 751 888 1085 1111 1200 1146 1120 1068 1032 946 914 897 820 751 729 720
1395 1207 967 888 867 780 610 545 382 304 352 637 616 334 342 487 554 426 321 243 277 217 194 144 325 383 401 558 513 620 530 440 357 372 428 526 809 819 761 632 596 563 605 664 829 873 757 858 943 996 1022 952 1083 1116 1134 1139 1149 1012 948 691 655 678 625
1252 1160 1082 1049 910 703 502 541 376 437 612 649 647 753 858 934 592 525 457 394 354 301 282 147 100 331 532 342 431 600 670 527 390 413 619 726 886 769 675 515 579 650 637 690 657 793 960 950 994 1098 965 989 1021 1086 1143 1329 1241 1204 1055 687 540 560 574
1068 1096 1154 1149 1033 723 572 324 448 530 746 859 901 984 972 964 932 768 588 439 401 332 338 274 120 102 254 367 352 554 571 470 466 529 494 474 745 792 700 538 682 852 886 883 904 921 962 1113 1098 1080 1073 1153 1234 1229 1079 1108 970 1079 1101 955 744 538 499
878 1005 1175 1194 1112 779 572 310 268 577 840 944 970 1017 1181 1135 1122 920 924 732 469 424 292 298 310 188 199 302 220 260 557 378 394 351 409 550 396 452 446 534 604 751 911 962 1016 986 970 1033 1047 998 1148 1244 1267 1209 978 708 746 791 838 740 705 593 438
636 863 1120 1218 1096 774 574 382 594 742 889 947 1013 1122 1242 1291 1208 1181 1062 990 728 517 464 343 298 121 120 82 111 354 306 403 476 413 426 443 477 599 757 998 1200 1124 906 962 928 1038 1116 1160 1115 1159 1226 1340 1384 1249 1153 927 925 1018 883 855 860 582 455
484 687 938 1151 1068 772 566 447 600 770 925 923 1074 1254 1192 1130 1166 1122 1224 1102 835 632 562 623 604 568 301 134 135 421 344 309 470 561 406 620 702 804 760 986 944 803 815 832 906 955 1145 1273 1282 1252 1331 1378 1395 1323 1376 1432 1370 1258 1011 964 850 558 512
356 506 735 959 964 744 484 480 700 813 938 976 1220 1223 1107 1063 1152 1248 1256 1086 970 758 542 516 667 567 320 220 376 470 286 379 604 653 711 729 918 1047 1230 1268 1294 1228 1158 1090 1031 1065 1226 1315 1404 1378 1365 1414 1422 1312 1320 1437 1384 1313 1088 904 805 630 557
333 393 566 760 809 682 561 670 723 925 968 1087 1226 1136 1019 991 1023 1114 1160 1035 1152 841 655 756 762 558 365 370 410 403 467 631 666 682 755 856 992 1138 1244 1264 1267 1216 1127 1163 1262 1257 1312 1317 1326 1419 1469 1494 1520 1528 1404 1362 1406 1299 1040 813 693 668 435
392 362 496 689 722 552 628 690 887 998 1105 1212 1195 1147 1046 1061 1133 1141 1101 977 781 919 813 851 675 466 362 310 316 432 628 714 743 794 932 1035 1147 1183 1166 1042 1089 1025 1065 1192 1226 1311 1410 1517 1506 1412 1362 1387 1454 1574 1588 1484 1487 1170 597 294 501 490 300
474 395 465 665 636 572 594 724 918 1092 1122 1226 1236 1272 1184 1211 1218 1318 999 852 829 966 902 681 524 432 340 353 396 548 699 738 926 979 1031 1209 1216 1142 1095 986 932 985 1220 1372 1479 1571 1558 1586 1528 1380 1328 1325 1414 1504 1597 1476 1427 865 430 225 222 279 180
521 497 440 548 556 620 622 691 877 1025 1139 1297 1457 1356 1266 1246 1337 1396 1176 1053 986 808 698 513 310 236 311 302 440 629 702 856 992 1002 1096 1262 1232 1078 918 764 856 1080 1325 1416 1586 1681 1688 1724 1593 1487 1430 1361 1406 1480 1660 1598 1256 820 405 216 203 155 81
567 595 532 566 700 658 642 680 856 1070 1217 1502 1412 1337 1256 1382 1368 1318 1359 1331 1245 974 673 457 300 397 385 400 514 604 828 921 894 912 1031 1210 1186 930 759 785 1001 1215 1384 1429 1462 1622 1755 1598 1539 1524 1521 1534 1626 1672 1669 1652 1439 758 368 173 178 180 83
594 619 584 584 659 597 678 882 930 1056 1286 1521 1420 1158 1298 1328 1412 1402 1477 1325 1102 755 714 613 606 516 365 448 598 780 898 884 884 870 1072 1154 1020 778 790 1028 1160 1260 1293 1426 1641 1734 1702 1702 1698 1711 1759 1736 1807 1816 1755 1800 1500 724 334 153 218 217 119
586 617 589 642 712 663 864 1024 1106 1170 1194 1182 1099 1027 1103 1222 1180 1251 1134 937 732 666 652 616 608 560 498 486 623 838 814 813 899 937 1068 1061 917 849 972 1185 1282 1348 1376 1442 1556 1561 1526 1598 1496 1500 1527 1681 1746 1728 1710 1759 1188 579 328 216 342 328 129
516 558 690 683 738 771 1074 1063 1092 1067 1172 1142 1002 922 843 1038 1002 887 982 977 782 761 614 610 577 530 602 604 652 762 850 833 852 1070 1066 933 961 1102 1158 1297 1440 1429 1465 1434 1391 1538 1644 1648 1640 1592 1545 1566 1707 1678 1520 1325 1160 588 342 344 538 455 242
358 494 632 757 798 1017 1215 1223 1243 1227 1351 1158 927 884 876 857 874 862 1021 924 742 754 664 525 544 600 694 718 804 926 999 994 918 1022 1082 1022 1065 1078 960 1088 1223 1310 1434 1350 1233 1358 1530 1571 1442 1610 1546 1520 1476 1470 1288 1172 1400 804 389 319 480 356 340
214 408 647 659 751 882 1095 968 917 916 828 838 812 834 926 915 802 959 1101 1024 950 760 676 684 671 784 877 869 967 1123 1177 1085 960 970 1055 1158 1100 831 790 826 1182 1357 1378 1242 1035 965 1012 1138 1345 1598 1708 1469 1306 952 843 818 1179 978 528 285 348 341 262
44 66 261 390 426 574 683 832 810 690 708 749 805 854 920 930 792 915 1036 1120 952 804 825 920 1017 1033 1009 1020 1053 1108 1075 1003 1048 1012 1025 1246 1109 938 852 936 1047 1110 1256 1076 984 1043 1320 1368 1418 1445 1397 1063 1114 905 664 710 954 1218 682 341 326 360 261
232 183 252 379 408 626 955 892 742 708 727 782 917 1006 928 794 837 866 1063 1044 939 965 1010 1115 1236 1461 1249 1036 944 906 935 971 1050 1198 1266 1382 1359 1242 1104 1129 1059 933 736 924 840 774 795 1201 1277 1382 1132 986 1276 926 941 919 1016 1452 914 469 372 394 322
418 374 376 172 208 360 457 670 731 1002 1124 1040 1161 967 724 677 837 1070 1292 1436 1372 1207 1174 1326 1484 1242 1029 980 892 884 992 1114 1214 1359 1504 1508 1258 1052 993 1156 971 887 1033 736 673 941 1206 1091 1030 1026 1253 1105 1150 1061 938 702 585 1055 875 651 518 410 315
152 96 144 313 467 746 623 447 687 849 850 1108 851 656 661 794 976 1266 1454 1469 1386 1406 1362 1546 1232 1046 1024 1101 1151 1127 1151 1289 1420 1474 1449 1584 1272 1210 1249 1258 1072 841 1020 856 936 1072 1127 1204 1062 1001 1128 1221 1238 1247 1108 944 377 817 839 502 336 239 250
280 320 234 292 423 637 685 717 668 713 798 659 436 505 590 701 1068 1334 1398 1349 1445 1542 1540 1284 1054 1026 1117 1176 1138 1229 1298 1475 1576 1577 1624 1483 1274 1234 1015 1109 1088 1272 1286 1214 1084 1074 986 950 990 838 710 800 932 1218 1255 1114 979 477 806 391 0 0 0
705 629 564 359 238 510 734 993 1055 958 860 298 471 535 629 810 1134 1364 1363 1392 1590 1468 1140 876 849 991 1064 1201 1423 1510 1525 1498 1517 1740 1654 1297 1335 1078 1032 988 1035 1196 1364 1112 1036 876 803 803 880 864 606 539 568 931 1014 1190 1034 960 104 68 0 0 0
735 746 681 536 260 379 458 797 1214 1127 844 610 672 799 856 817 1087 1328 1330 1550 1561 1108 940 912 1038 1259 1287 1402 1493 1641 1468 1363 1408 1581 1247 927 1074 885 850 749 927 967 1306 1160 932 936 792 814 603 752 700 695 767 834 875 890 914 985 504 0 0 0 0
547 577 387 338 371 306 306 492 626 714 870 879 698 768 771 863 925 1200 1374 1497 1092 999 911 1032 1104 1132 1163 1265 1400 1381 1205 1084 1250 1449 994 786 848 861 1008 691 634 737 1054 1032 865 838 830 711 536 501 478 589 476 674 625 652 890 916 432 25 0 0 0
1028 579 640 724 595 350 399 536 555 690 735 783 663 459 422 680 682 920 1178 916 856 816 989 997 968 1024 1287 1462 1285 1224 1072 1058 1110 1026 548 604 722 683 672 766 740 907 942 873 714 613 537 398 381 351 262 378 354 418 514 602 622 375 0 0 0 0 0
1038 843 524 201 139 187 365 588 734 739 815 796 864 452 313 370 541 544 573 401 448 442 677 752 936 1128 1242 1086 950 969 1110 1198 1116 928 355 341 306 232 414 472 437 711 758 587 438 469 407 306 359 176 94 86 94 170 285 359 246 6 0 0 0 0 0
1001 784 464 315 199 237 466 726 721 872 879 795 423 182 174 179 160 181 376 466 443 681 890 1131 1232 1098 1065 814 816 688 1072 1205 1030 976 468 406 717 841 972 698 620 758 163 0 1 4 38 164 15 0 0 0 0 0 2 1 0 0 0 0 0 0 1
858 474 333 128 52 168 435 442 528 669 559 535 203 241 286 292 336 324 234 430 645 868 1057 1140 978 806 462 462 388 208 266 618 623 638 795 264 428 649 507 0 0 151 197 0 0 0 0 0 0 0 0 0 1 2 0 1 0 0 0 0 0 0 0
551 346 215 196 124 239 273 409 340 383 283 233 182 228 324 383 364 536 410 742 707 684 1046 901 788 567 424 458 273 300 411 345 346 764 970 700 793 780 490 44 0 0 0 0 0 0 0 0 0 0 0 0 0 0 0 0 0 0 0 0 0 0 0
350 351 332 316 286 298 311 351 377 383 499 453 409 429 446 305 302 569 281 482 504 720 876 819 740 682 606 520 420 776 813 801 777 768 684 764 809 652 444 372 3 1 0 0 0 0 0 0 0 0 0 0 0 0 0 0 0 0 0 0 0 0 0
Wind_Speed
24 24 23 23 23 24 24 25 27 29 30 30 31 33 33 33 33 33 34 35 36 35 33 33 34 34 33 32 32 31 32 32 33 33 34 34 34 33 32 33 33 34 35 35 34 31 29 26 25 25 26 27 26 26 27 28 29 28 28 29 30 32 33
26 25 25 26 26 25 24 25 27 29 30 31 32 34 33 33 34 33 35 36 35 33 33 33 34 34 33 32 31 31 30 32 33 33 34 35 36 36 35 35 36 35 36 36 34 31 28 26 25 25 24 25 27 27 28 29 30 30 29 30 30 30 30
27 27 28 28 29 29 28 27 28 30 32 33 33 34 34 34 34 34 35 36 35 33 32 33 34 34 34 32 31 31 31 32 33 33 33 33 33 35 38 38 39 39 37 36 34 30 27 26 25 24 24 26 27 29 30 30 30 31 31 31 31 31 30
28 28 30 30 30 31 30 30 31 31 33 34 35 35 35 35 34 34 35 36 35 33 32 35 35 35 34 33 32 32 32 33 34 34 34 34 34 35 37 40 41 41 40 38 33 30 27 26 25 25 26 27 29 30 31 31 30 31 31 31 31 31 31
28 29 31 31 32 32 32 31 31 33 34 34 34 34 34 35 35 35 35 35 33 32 32 34 35 35 35 34 33 34 34 34 35 35 35 35 36 37 38 39 40 40 39 37 34 29 27 26 26 26 27 28 29 30 30 30 30 30 30 30 30 31 32
30 31 32 33 33 33 33 32 32 34 35 35 35 35 34 35 35 36 37 36 34 32 33 35 36 36 35 35 35 35 35 36 36 36 37 37 37 39 40 40 40 40 39 37 34 31 28 27 26 26 27 28 29 28 28 28 28 28 28 29 30 31 32
30 32 33 33 34 34 34 34 34 34 35 34 34 34 34 35 35 36 37 37 35 34 34 36 36 37 36 36 36 36 36 36 37 37 38 38 39 40 41 42 41 41 39 37 35 33 30 27 26 27 28 28 27 26 25 25 24 26 27 28 29 30 31
29 31 33 34 34 35 34 34 35 35 35 35 35 35 35 35 36 37 37 36 35 34 35 35 37 37 36 36 35 35 36 37 37 38 40 40 40 41 42 43 42 41 39 37 34 33 30 27 26 28 28 28 27 25 24 24 24 25 26 26 27 28 31
29 31 32 33 34 34 34 35 36 37 38 37 36 36 36 37 37 37 38 37 36 35 35 36 nan 38 38 36 36 36 38 38 39 39 40 40 41 41 42 44 43 42 39 36 33 32 30 26 26 27 29 29 27 25 24 25 24 25 24 25 25 26 27
30 32 32 33 33 33 34 35 36 37 38 37 37 37 37 37 38 38 37 37 37 36 36 37 38 38 38 38 37 38 39 39 40 40 40 41 41 41 42 44 44 42 39 36 33 31 29 27 26 27 29 30 29 26 25 24 23 22 21 21 22 23 23
31 32 33 33 34 34 35 36 37 38 39 38 37 38 38 38 38 38 38 39 37 36 36 38 39 38 38 38 37 38 40 40 41 41 41 42 42 41 43 44 43 41 37 35 32 30 28 28 28 29 30 31 31 28 26 25 23 20 17 16 18 19 21
32 32 33 34 34 35 36 36 37 39 39 38 38 39 39 39 39 39 39 39 38 37 38 39 39 38 38 nan 39 40 40 41 43 43 43 43 43 43 44 45 44 40 37 35 31 30 29 28 29 31 31 32 32 31 28 26 24 21 18 17 16 18 19
31 31 33 35 35 35 36 37 38 39 39 39 39 40 40 39 39 40 40 39 39 39 39 40 40 40 40 39 40 41 42 42 44 45 44 45 45 46 46 46 43 39 35 33 31 30 29 28 29 31 32 32 33 31 29 27 25 23 21 19 18 18 18
33 32 32 34 35 36 37 38 39 39 39 39 39 40 39 39 40 40 41 40 40 41 41 42 42 42 41 41 42 43 43 44 46 46 46 46 46 46 47 46 45 41 37 33 32 31 30 28 29 30 33 33 33 32 31 28 26 24 22 20 20 21 20
33 34 35 35 35 36 37 39 39 39 39 38 39 39 39 40 40 41 41 41 41 42 42 44 44 44 43 43 43 44 45 46 47 48 47 46 46 46 46 45 44 41 37 33 32 33 31 30 29 29 30 32 32 32 33 31 29 27 24 21 20 22 21
34 35 37 37 37 37 37 39 40 39 39 37 38 38 39 40 41 42 43 43 43 43 44 46 46 45 44 44 44 45 46 47 47 47 46 45 45 44 44 43 43 40 36 32 31 31 32 30 29 29 29 30 31 31 32 33 32 31 27 24 22 20 21
34 36 36 37 38 38 38 40 39 39 38 37 37 38 40 41 42 43 43 44 45 46 46 48 47 47 46 45 45 46 46 48 47 47 45 44 44 44 43 42 41 39 36 33 32 31 32 31 28 27 29 30 30 30 31 32 32 31 28 25 23 21 19
36 36 36 38 38 39 40 40 39 38 37 37 38 39 41 42 43 45 45 46 46 47 48 49 48 47 46 45 45 46 47 47 47 45 44 44 44 42 42 41 40 37 35 34 33 32 32 30 28 27 29 31 31 30 31 31 32 30 27 26 24 22 nan
36 36 37 38 39 40 40 40 39 38 37 38 39 40 41 44 45 45 47 48 48 49 49 48 47 46 45 45 45 45 47 48 47 45 44 44 43 42 41 40 38 36 34 33 34 32 30 29 27 26 28 30 30 29 30 30 33 30 27 27 26 23 nan
35 35 36 37 37 39 39 38 38 37 37 39 40 41 43 45 46 45 47 48 50 50 49 48 47 46 44 45 45 46 48 48 47 46 45 44 43 41 39 38 37 36 35 35 34 31 28 26 25 25 27 29 29 28 29 29 32 31 28 26 25 23 20
35 36 36 36 36 37 38 38 38 38 38 38 40 42 45 45 46 46 47 49 50 50 49 47 46 45 45 45 46 48 49 49 48 47 46 44 43 40 39 37 36 36 36 35 33 29 27 25 24 24 25 26 27 27 28 29 32 29 28 28 26 23 19
34 35 35 35 37 38 38 38 38 39 39 41 43 44 45 46 47 48 48 50 49 49 48 47 46 46 46 47 48 48 49 49 48 47 46 44 42 39 37 36 36 35 36 34 31 28 26 25 25 23 23 24 25 26 26 27 34 31 29 28 26 22 19
35 35 35 36 37 38 38 38 38 39 41 43 43 45 46 47 49 49 49 50 48 48 48 48 47 47 48 49 49 49 49 48 47 45 44 43 40 37 35 35 35 35 36 32 29 26 24 24 23 22 22 23 24 24 24 24 29 32 31 29 27 24 20
35 35 35 37 36 36 37 37 38 40 41 41 43 45 47 49 50 50 50 48 48 48 48 48 47 48 49 49 49 49 48 47 46 45 43 42 39 35 34 35 36 35 34 31 27 24 22 21 21 21 21 22 23 23 22 23 26 29 29 29 28 26 22
nan nan 34 34 35 36 36 38 40 40 41 42 42 46 50 51 51 50 50 48 47 47 48 48 47 48 49 48 48 47 46 45 45 44 42 39 37 36 35 35 34 33 32 29 26 23 22 21 21 21 21 22 22 24 22 22 23 26 27 29 28 26 22
35 34 33 33 33 34 36 40 41 40 41 42 43 49 52 52 50 50 50 49 48 48 48 47 47 48 48 47 45 45 44 44 43 43 41 38 37 37 36 35 34 32 29 27 25 23 22 22 22 21 21 22 23 22 22 22 22 23 25 27 27 27 23
33 34 35 35 34 36 37 38 40 40 42 43 46 50 52 52 51 50 50 49 48 47 46 46 48 48 46 46 44 43 42 42 43 42 40 38 36 37 36 35 33 31 28 25 24 22 21 21 22 21 21 21 22 23 22 23 21 22 24 23 25 26 24
36 nan 34 34 36 38 38 39 40 39 39 43 48 49 51 52 51 50 51 49 47 46 46 47 47 47 46 45 43 41 41 41 42 42 39 37 37 37 35 34 34 32 28 26 24 21 20 21 21 20 19 20 21 23 22 22 22 21 22 22 22 22 24
37 36 36 36 35 36 39 40 40 40 41 45 48 50 51 52 51 51 51 48 46 47 47 47 47 46 45 44 43 42 42 42 42 41 40 38 36 35 33 33 32 31 28 25 23 21 20 20 20 19 18 18 20 23 24 23 22 22 22 23 nan nan nan
35 34 35 34 35 38 39 38 39 40 45 47 49 50 52 52 51 50 49 46 46 48 48 48 47 47 45 44 43 44 43 42 41 40 39 36 34 33 32 31 30 29 27 24 22 21 20 20 21 20 18 18 18 21 23 24 21 23 24 nan nan nan nan
35 35 35 36 37 40 39 37 37 40 44 47 48 50 50 50 49 48 46 44 47 47 48 48 47 46 45 44 43 42 42 41 39 38 38 35 33 33 32 30 29 26 25 22 21 21 21 21 21 20 19 19 18 19 21 23 21 20 22 nan nan nan nan
37 36 36 36 37 39 38 39 39 41 42 46 49 49 49 47 46 46 43 46 47 47 48 47 45 43 42 42 41 40 40 38 36 37 34 31 31 31 30 29 27 25 23 22 22 21 21 21 22 21 20 19 18 19 19 21 21 19 17 nan nan nan nan
38 38 37 37 40 41 41 41 41 42 44 44 49 49 48 47 45 44 44 46 47 47 47 45 43 41 42 41 40 39 38 35 34 36 36 32 31 31 30 29 27 25 23 23 22 21 21 22 23 22 21 20 19 19 18 19 21 20 nan nan nan nan nan
38 39 39 40 41 41 41 43 43 43 44 44 48 49 47 47 46 45 44 44 45 45 45 42 41 41 41 41 40 38 36 33 33 35 35 34 32 31 29 27 25 24 24 24 24 22 22 23 24 24 nan nan nan 19 19 19 21 nan nan nan nan nan nan
40 39 40 41 41 42 42 42 41 41 43 45 48 48 48 47 46 45 45 44 44 44 42 42 42 42 41 41 40 37 35 34 34 35 35 35 33 31 29 25 26 26 26 nan nan nan nan 24 nan nan nan nan nan nan nan nan nan nan nan nan nan nan nan
42 42 42 42 nan 43 42 42 41 42 44 47 48 47 47 46 46 45 44 44 44 43 41 42 42 42 41 41 39 37 36 35 34 35 34 32 30 32 35 nan nan 24 26 nan nan nan nan nan nan nan nan nan nan nan nan nan nan nan nan nan nan nan nan
44 44 45 47 47 46 44 44 45 46 47 47 47 46 45 45 45 44 43 43 42 41 42 42 42 41 40 40 38 38 36 33 31 34 34 31 30 31 34 nan nan nan nan nan nan nan nan nan nan nan nan nan nan nan nan nan nan nan nan nan nan nan nan
47 47 49 50 48 47 46 46 47 47 48 49 47 46 45 44 43 43 43 42 41 41 42 43 42 40 39 38 38 38 36 35 33 32 32 31 30 31 31 32 nan nan nan nan nan nan nan nan nan nan nan nan nan nan nan nan nan nan nan nan nan nan nan
Wind_Direction
311 312 313 310 310 314 316 316 317 317 319 321 323 323 323 321 321 320 319 316 314 311 312 316 319 317 316 317 318 320 322 323 324 327 328 329 328 325 324 324 323 321 318 316 315 314 310 304 300 297 295 293 291 287 282 280 278 275 273 273 271 268 267
307 309 309 308 309 309 311 313 312 314 317 319 320 322 323 323 321 321 318 314 312 311 312 317 318 316 315 316 317 318 320 321 323 325 326 326 324 324 324 325 325 323 320 318 316 315 311 306 302 299 295 293 290 287 284 279 277 275 272 270 270 269 268
305 306 306 306 309 309 312 311 312 314 316 316 318 321 325 325 323 322 316 314 313 312 314 318 319 317 316 316 317 318 321 321 322 323 323 323 322 323 324 326 326 325 322 319 317 314 310 307 304 301 298 295 292 289 287 283 278 275 272 268 266 266 265
304 308 309 307 305 306 309 311 313 313 313 316 319 323 325 325 322 318 315 314 314 313 316 318 318 318 317 317 317 319 322 323 323 323 323 323 324 324 325 326 327 327 326 322 318 314 311 307 305 304 302 300 297 294 290 286 280 275 270 266 263 262 261
301 303 303 304 307 305 307 309 311 311 313 314 316 320 321 320 320 318 314 313 314 314 314 315 315 316 316 317 317 320 322 323 323 324 324 325 325 325 326 327 326 327 327 324 320 315 310 307 306 306 304 304 300 296 291 287 282 277 273 267 262 257 256
302 305 306 305 305 306 307 309 311 312 313 315 318 319 318 320 319 320 316 315 315 314 314 316 318 317 318 317 319 321 322 323 324 325 326 326 326 326 327 328 327 328 328 325 321 317 311 308 308 307 306 303 299 296 293 289 286 281 275 270 265 259 254
302 304 303 303 302 304 306 307 308 308 310 311 313 313 316 318 319 317 315 317 317 316 316 318 318 318 319 318 320 321 322 322 324 326 327 328 328 328 327 327 327 328 327 325 323 318 314 310 310 309 307 305 302 300 296 293 288 283 278 272 266 262 255
302 299 299 299 301 304 305 305 306 306 307 308 311 315 317 315 315 316 318 318 317 316 316 318 318 319 320 319 319 321 321 322 324 326 327 329 328 327 326 326 327 327 328 327 323 320 315 313 311 310 308 307 304 301 298 293 289 285 280 273 268 264 261
298 294 295 299 301 303 303 304 307 308 311 312 314 313 313 312 314 316 318 319 318 317 318 319 nan 318 319 320 320 321 322 324 326 326 328 328 327 326 326 326 327 328 329 326 322 319 316 312 311 311 311 310 308 302 297 295 293 289 284 275 270 268 264
294 290 291 294 298 298 298 302 302 303 307 309 311 312 313 312 312 314 317 319 319 319 318 318 320 321 320 320 322 322 322 324 325 327 328 327 326 327 327 327 328 329 329 326 321 319 315 311 309 309 312 314 314 307 298 298 298 296 293 287 277 270 265
291 292 293 297 298 297 298 301 304 305 307 309 311 312 310 310 312 315 318 319 319 317 317 317 319 320 321 321 323 323 323 324 324 326 327 327 327 328 327 327 328 329 330 325 320 317 315 311 309 309 311 314 316 313 307 304 305 302 297 294 286 276 268
295 296 298 298 298 299 303 303 302 303 307 309 312 312 310 309 312 315 317 318 318 316 315 317 319 321 321 nan 322 322 324 324 325 327 328 327 328 327 326 326 329 330 330 324 318 314 313 312 309 308 309 312 317 319 316 311 311 307 296 293 293 287 274
297 297 298 301 301 298 297 298 304 306 309 312 313 310 308 310 313 314 315 317 317 314 315 316 318 320 321 322 322 322 323 325 326 326 326 327 327 326 325 326 328 329 328 322 315 312 310 309 309 308 308 310 314 319 319 314 313 311 304 297 292 286 283
293 293 294 294 296 299 301 302 303 307 310 311 310 307 307 308 310 312 314 317 316 315 316 316 318 321 321 321 321 322 324 325 324 324 325 326 326 325 324 325 326 328 327 322 316 312 311 308 306 306 308 310 313 318 321 319 315 313 308 299 288 284 286
302 304 302 302 300 299 301 303 305 307 307 309 307 307 308 307 308 310 312 315 315 315 317 317 318 320 321 321 321 323 323 322 322 322 323 325 325 325 324 323 325 327 326 321 314 310 310 309 307 308 309 310 313 317 321 320 317 314 310 301 290 285 286
304 302 302 302 301 302 302 303 303 305 306 306 307 306 306 306 309 312 315 317 317 317 317 315 318 319 320 321 322 322 322 320 321 321 321 324 325 323 322 322 323 325 324 319 311 308 309 310 310 311 311 310 311 317 320 320 318 319 323 314 298 284 281
301 300 300 300 300 301 300 300 302 303 304 306 306 306 306 307 311 313 317 318 319 318 317 315 317 318 319 321 321 320 319 319 319 319 321 324 324 322 320 320 321 323 322 316 310 308 308 310 311 312 312 311 312 316 319 319 317 322 323 315 303 288 276
300 300 301 301 300 298 298 301 302 303 306 306 305 305 306 309 312 313 317 317 317 317 315 314 315 317 318 319 318 318 318 318 318 320 323 324 324 321 319 319 320 321 319 313 309 307 308 310 310 310 310 310 311 315 318 318 319 324 322 314 304 291 nan
301 300 300 299 299 300 300 302 303 304 305 303 303 306 310 310 311 315 316 316 315 313 313 314 315 315 317 317 317 317 317 317 319 322 324 324 322 319 317 318 319 319 316 312 308 308 309 308 307 306 307 309 310 312 316 318 319 323 322 318 313 298 nan
297 297 297 298 299 300 299 296 296 300 304 304 306 308 307 309 312 313 313 313 311 312 313 313 314 315 317 317 317 318 318 318 321 324 325 323 320 318 317 317 318 317 315 312 311 310 309 306 303 302 304 305 307 310 314 317 318 324 325 324 321 310 296
294 295 298 298 296 295 295 297 297 298 299 302 305 305 305 307 310 310 310 311 311 311 312 313 314 315 317 318 318 318 319 322 324 325 323 321 319 317 317 317 317 316 313 310 310 309 307 303 299 300 302 303 305 309 312 315 318 323 324 326 329 321 309
296 296 297 296 297 296 295 296 300 303 304 300 300 303 305 308 309 312 313 310 311 312 312 313 314 316 318 319 320 321 323 324 325 323 321 320 318 317 317 316 316 315 311 309 309 310 309 305 304 303 303 302 304 307 310 311 318 324 325 328 330 321 311
297 299 298 295 296 297 297 298 298 298 294 295 300 303 307 309 310 312 312 311 312 312 313 313 316 319 320 321 322 323 324 324 323 321 321 319 317 316 316 315 315 313 311 309 308 309 307 304 302 302 304 305 305 307 308 308 315 322 326 331 331 324 317
286 286 286 289 288 287 289 290 290 290 294 299 303 306 307 309 311 311 311 312 313 314 315 316 319 320 320 321 323 323 323 323 321 321 321 319 317 316 314 313 313 314 312 310 308 309 306 302 302 303 304 307 307 305 304 305 313 323 327 329 331 327 324
nan nan 291 293 296 296 294 292 293 293 295 300 306 309 309 310 311 312 313 313 315 315 315 317 319 319 320 321 322 322 322 321 321 322 321 319 316 313 312 311 311 312 313 311 309 309 306 303 302 301 302 304 304 307 309 303 309 322 329 330 332 330 328
290 290 292 293 293 292 289 287 289 295 301 306 312 308 308 308 310 314 313 315 315 315 316 318 319 317 317 319 320 321 321 321 322 322 321 319 315 312 311 311 311 311 311 309 306 303 301 302 302 301 299 300 303 301 302 300 303 313 322 326 329 333 333
290 289 292 296 297 294 292 294 297 302 307 307 304 304 306 308 312 314 314 314 314 316 316 317 314 315 318 319 320 322 323 322 321 321 320 317 313 310 311 310 309 310 311 306 301 301 302 299 298 299 301 301 301 301 299 297 297 302 309 318 324 329 335
288 nan 290 291 291 294 295 297 300 303 305 304 302 305 307 310 313 313 312 312 315 316 314 314 314 316 318 319 320 321 321 320 318 317 315 314 311 311 311 309 307 308 308 304 301 300 298 297 297 299 303 305 303 301 300 300 302 299 300 305 311 321 338
293 295 295 293 292 296 296 297 301 306 306 302 305 306 308 311 313 312 311 313 316 313 312 312 314 316 317 318 319 319 318 316 316 315 312 311 312 312 312 309 306 304 304 303 299 296 293 292 292 295 300 303 304 303 301 301 303 304 298 298 nan nan nan
287 287 288 290 290 289 295 298 301 301 299 301 304 307 309 312 312 310 311 316 313 310 311 313 316 317 318 317 317 317 316 315 315 315 313 311 311 313 314 311 306 302 301 299 297 293 290 288 290 293 295 297 301 304 303 303 304 307 301 nan nan nan nan
285 284 282 281 282 283 290 297 299 298 299 301 305 306 308 310 311 310 314 314 310 311 315 317 317 317 316 316 316 316 315 314 315 315 313 314 315 317 317 314 306 302 301 298 293 292 290 288 289 292 295 298 302 304 303 301 303 305 303 nan nan nan nan
281 283 285 286 289 291 295 298 301 301 302 303 305 306 307 310 311 315 316 309 310 314 317 318 317 316 315 314 314 313 313 314 316 316 315 311 311 316 318 317 309 304 301 297 294 293 293 291 290 292 293 297 298 299 300 301 304 302 300 nan nan nan nan
288 290 291 292 292 293 297 301 302 303 303 304 305 307 309 311 313 313 310 311 313 316 316 316 315 314 313 312 311 311 313 316 317 313 308 312 310 310 314 316 310 304 302 299 295 294 293 291 290 291 291 294 294 294 295 297 298 298 nan nan nan nan nan
291 292 293 293 294 297 300 302 303 303 304 303 303 305 308 310 313 313 314 315 316 315 313 313 314 313 312 310 310 310 312 313 314 311 310 312 311 310 311 311 308 302 298 295 292 293 293 290 288 287 nan nan nan 290 290 289 291 nan nan nan nan nan nan
290 289 288 291 294 299 301 300 300 300 301 301 301 305 307 310 311 312 313 314 313 312 313 312 311 311 309 308 309 310 312 311 308 307 310 310 308 307 303 302 300 296 291 nan nan nan nan 290 nan nan nan nan nan nan nan nan nan nan nan nan nan nan nan
288 289 289 289 nan 294 296 296 296 298 301 301 301 304 306 308 309 309 310 310 310 310 310 308 308 308 309 308 307 306 308 309 308 304 305 309 310 307 298 nan nan 281 293 nan nan nan nan nan nan nan nan nan nan nan nan nan nan nan nan nan nan nan nan
288 289 289 290 292 295 296 296 296 298 300 301 303 305 307 307 307 307 307 306 306 306 306 306 306 307 308 307 306 306 308 306 304 302 303 306 306 306 304 nan nan nan nan nan nan nan nan nan nan nan nan nan nan nan nan nan nan nan nan nan nan nan nan
290 290 289 290 292 294 295 296 296 298 299 301 303 305 306 306 306 305 304 303 303 303 304 305 305 305 305 304 307 309 309 307 303 300 301 301 303 305 307 304 nan nan nan nan nan nan nan nan nan nan nan nan nan nan nan nan nan nan nan nan nan nan nan